tititudorancea.com
Station Historical Data
Daily Summary for April 1, 2018 Units:  Metric    English   Both
« Previous Day
Next Day »
Daily Weekly Monthly Yearly Custom
  High: Low: Average:
Temperature: -17.8 °C 9.1 °C 16.4 °C
Dew Point: -17.8 °C 3.6 °C 7.2 °C
Humidity: Humidity % 27 % 59 %
Wind Speed: 0 km/h 0 km/h 5.6 km/h
Wind Gust: 0 km/h - -
Wind:- - WNW
Pressure: 0 hPa 1010.4 hPa -
Precipitation: 0 mm    
Historical Graphs
 
 
Ararat weather Find more about Weather in Ararat, AU


 



 


Tabular Data for April 1, 2018
Time Temperature Dew Point Pressure Wind Wind Speed Wind Gust Humidity Rainfall Rate (Hourly)
-17.8 °C -17.8 °C 0 hPa Calm     Humidity % 0 mm
00:01 10.5 °C 6.6 °C 1014.1 hPa Calm     77 % 0 mm
00:06 10.5 °C 6.8 °C 1013.8 hPa North 0.6 km/h 1.9 km/h 78 % 0 mm
00:11 10.6 °C 6.9 °C 1014.1 hPa Calm     78 % 0 mm
00:16 10.6 °C 6.9 °C 1014.1 hPa Calm     78 % 0 mm
00:21 10.5 °C 6.8 °C 1014.1 hPa Calm     78 % 0 mm
00:26 10.5 °C 6.8 °C 1013.8 hPa North 2.6 km/h 3.7 km/h 78 % 0 mm
00:31 10.6 °C 7.1 °C 1013.8 hPa North 0.5 km/h 1.9 km/h 79 % 0 mm
00:36 10.7 °C 7 °C 1013.8 hPa Calm     78 % 0 mm
00:41 10.6 °C 6.9 °C 1014.1 hPa Calm     78 % 0 mm
00:46 10.6 °C 6.9 °C 1013.8 hPa Calm     78 % 0 mm
00:51 10.5 °C 7 °C 1013.8 hPa Calm     79 % 0 mm
00:56 10.4 °C 6.9 °C 1014.1 hPa Calm     79 % 0 mm
01:01 10.4 °C 6.9 °C 1014.1 hPa Calm     79 % 0 mm
01:06 10.3 °C 7.1 °C 1013.8 hPa Calm     80 % 0 mm
01:11 10.3 °C 7 °C 1013.8 hPa Calm     80 % 0 mm
01:16 10.2 °C 6.9 °C 1013.8 hPa Calm     80 % 0 mm
01:21 10.2 °C 6.9 °C 1013.8 hPa North 1.9 km/h 3.7 km/h 80 % 0 mm
01:26 10 °C 6.7 °C 1013.8 hPa Calm     80 % 0 mm
01:31 9.9 °C 6.6 °C 1013.8 hPa Calm     80 % 0 mm
01:36 9.8 °C 6.7 °C 1013.4 hPa Calm     81 % 0 mm
01:41 9.8 °C 6.7 °C 1013.4 hPa Calm     81 % 0 mm
01:46 9.7 °C 6.6 °C 1013.4 hPa Calm     81 % 0 mm
01:51 9.7 °C 6.7 °C 1013.4 hPa Calm     82 % 0 mm
01:56 9.6 °C 6.6 °C 1013.4 hPa Calm     82 % 0 mm
02:01 9.4 °C 6.5 °C 1013.4 hPa Calm     82 % 0 mm
02:06 9.4 °C 6.4 °C 1013.4 hPa Calm     82 % 0 mm
02:11 9.3 °C 6.6 °C 1013.4 hPa Calm     83 % 0 mm
02:16 9.2 °C 6.5 °C 1013.4 hPa Calm     83 % 0 mm
02:21 9.2 °C 6.4 °C 1013.4 hPa Calm     83 % 0 mm
02:26 9.2 °C 6.6 °C 1013.4 hPa Calm     84 % 0 mm
02:31 9.1 °C 6.6 °C 1013.4 hPa Calm     84 % 0 mm
02:36 9.1 °C 6.6 °C 1013.4 hPa Calm     84 % 0 mm
02:41 9.1 °C 6.6 °C 1013.4 hPa Calm     84 % 0 mm
02:46 9.2 °C 6.8 °C 1013.1 hPa Calm     85 % 0 mm
02:51 9.2 °C 6.8 °C 1013.1 hPa Calm     85 % 0 mm
02:56 9.2 °C 6.8 °C 1013.1 hPa Calm     85 % 0 mm
02:01 9.1 °C 6.7 °C 1013.1 hPa Calm     85 % 0 mm
02:06 9.1 °C 6.7 °C 1013.1 hPa Calm     85 % 0 mm
02:11 9.1 °C 6.7 °C 1013.1 hPa Calm     85 % 0 mm
02:16 9.2 °C 6.8 °C 1013.1 hPa Calm     85 % 0 mm
02:21 9.2 °C 6.8 °C 1012.8 hPa Calm     85 % 0 mm
02:26 9.3 °C 6.9 °C 1013.1 hPa Calm     85 % 0 mm
02:31 9.4 °C 7 °C 1012.8 hPa Calm     85 % 0 mm
02:36 9.4 °C 7.1 °C 1012.8 hPa Calm     85 % 0 mm
02:41 9.5 °C 7.1 °C 1012.8 hPa Calm     85 % 0 mm
02:46 9.5 °C 6.9 °C 1012.8 hPa Calm     84 % 0 mm
02:51 9.6 °C 7.1 °C 1012.8 hPa Calm     84 % 0 mm
02:56 9.7 °C 7.1 °C 1012.8 hPa Calm     84 % 0 mm
03:01 9.7 °C 7.2 °C 1012.8 hPa Calm     84 % 0 mm
03:06 9.8 °C 7.2 °C 1012.8 hPa Calm     84 % 0 mm
03:11 9.8 °C 7.3 °C 1012.4 hPa Calm     84 % 0 mm
03:16 9.9 °C 7.3 °C 1012.4 hPa Calm     84 % 0 mm
03:21 9.9 °C 7.3 °C 1012.4 hPa Calm     84 % 0 mm
03:26 9.9 °C 7.2 °C 1012.4 hPa Calm     83 % 0 mm
03:31 10.1 °C 7.5 °C 1012.4 hPa Calm     84 % 0 mm
03:36 10.1 °C 7.6 °C 1012.4 hPa Calm     84 % 0 mm
03:41 10.1 °C 7.3 °C 1012.4 hPa Calm     83 % 0 mm
03:46 10.1 °C 7.3 °C 1012.4 hPa Calm     83 % 0 mm
03:51 10.1 °C 7.3 °C 1012.4 hPa Calm     83 % 0 mm
03:56 10.1 °C 7.3 °C 1012.4 hPa Calm     83 % 0 mm
04:01 10 °C 7.2 °C 1012.1 hPa Calm     83 % 0 mm
04:06 10 °C 7.2 °C 1012.1 hPa Calm     83 % 0 mm
04:07 10 °C 7.2 °C 1012.1 hPa Calm     83 % 0 mm
04:12 9.9 °C 7.4 °C 1012.1 hPa Calm     84 % 0 mm
04:17 9.9 °C 7.4 °C 1012.4 hPa Calm     84 % 0 mm
04:22 9.9 °C 7.4 °C 1012.4 hPa Calm     84 % 0 mm
04:27 9.9 °C 7.4 °C 1012.4 hPa Calm     84 % 0 mm
04:32 10 °C 7.4 °C 1012.4 hPa Calm     84 % 0 mm
04:37 10 °C 7.4 °C 1012.4 hPa Calm     84 % 0 mm
04:42 10 °C 7.4 °C 1012.8 hPa Calm     84 % 0 mm
04:47 10 °C 7.4 °C 1012.4 hPa Calm     84 % 0 mm
04:52 10 °C 7.4 °C 1012.8 hPa Calm     84 % 0 mm
04:57 10 °C 7.4 °C 1012.4 hPa Calm     84 % 0 mm
05:02 9.9 °C 7.4 °C 1012.8 hPa Calm     84 % 0 mm
05:07 9.9 °C 7.4 °C 1012.4 hPa Calm     84 % 0 mm
05:12 9.9 °C 7.5 °C 1012.4 hPa Calm     85 % 0 mm
05:17 9.8 °C 7.4 °C 1012.4 hPa Calm     85 % 0 mm
05:22 9.8 °C 7.4 °C 1012.8 hPa Calm     85 % 0 mm
05:27 9.8 °C 7.4 °C 1012.8 hPa Calm     85 % 0 mm
05:32 9.7 °C 7.3 °C 1012.8 hPa Calm     85 % 0 mm
05:37 9.7 °C 7.5 °C 1012.8 hPa Calm     86 % 0 mm
05:42 9.8 °C 7.6 °C 1012.8 hPa Calm     86 % 0 mm
05:47 9.8 °C 7.6 °C 1012.8 hPa Calm     86 % 0 mm
05:52 9.8 °C 7.4 °C 1012.8 hPa Calm     85 % 0 mm
05:57 9.7 °C 7.4 °C 1012.8 hPa Calm     86 % 0 mm
06:02 9.6 °C 7.4 °C 1012.8 hPa Calm     86 % 0 mm
06:07 9.6 °C 7.3 °C 1013.1 hPa Calm     86 % 0 mm
06:12 9.5 °C 7.3 °C 1013.1 hPa Calm     86 % 0 mm
06:17 9.4 °C 7.2 °C 1013.1 hPa Calm     86 % 0 mm
06:22 9.3 °C 7.1 °C 1013.1 hPa Calm     86 % 0 mm
06:27 9.3 °C 7.1 °C 1013.1 hPa Calm     86 % 0 mm
06:32 9.3 °C 7.1 °C 1013.1 hPa Calm     86 % 0 mm
06:37 9.4 °C 7.2 °C 1013.1 hPa Calm     86 % 0 mm
06:42 9.4 °C 7.2 °C 1013.1 hPa Calm     86 % 0 mm
06:47 9.4 °C 7.1 °C 1013.1 hPa Calm     85 % 0 mm
06:52 9.4 °C 7.1 °C 1013.1 hPa Calm     85 % 0 mm
06:57 9.4 °C 7.2 °C 1013.1 hPa Calm     86 % 0 mm
07:02 9.4 °C 7.1 °C 1013.1 hPa Calm     85 % 0 mm
07:07 9.4 °C 7.1 °C 1013.1 hPa Calm     85 % 0 mm
07:12 9.5 °C 7.1 °C 1013.1 hPa Calm     85 % 0 mm
07:17 9.6 °C 7.3 °C 1013.4 hPa Calm     86 % 0 mm
07:22 9.7 °C 7.3 °C 1013.4 hPa Calm     85 % 0 mm
07:27 9.8 °C 7.6 °C 1013.4 hPa Calm     86 % 0 mm
07:32 10.1 °C 7.8 °C 1013.4 hPa Calm     86 % 0 mm
07:37 10.5 °C 8.3 °C 1013.4 hPa Calm     86 % 0 mm
07:42 11.1 °C 8.5 °C 1013.4 hPa North 1.1 km/h 3.7 km/h 84 % 0 mm
07:47 11.7 °C 8.2 °C 1013.4 hPa North 2.7 km/h 5.6 km/h 79 % 0 mm
07:52 12.2 °C 7.4 °C 1013.4 hPa North 4 km/h 5.6 km/h 73 % 0 mm
07:57 12.6 °C 7.4 °C 1013.4 hPa North 3.4 km/h 5.6 km/h 71 % 0 mm
08:02 12.8 °C 7.4 °C 1013.8 hPa North 0.5 km/h 1.9 km/h 70 % 0 mm
08:07 13.1 °C 7.6 °C 1013.8 hPa North 2.6 km/h 3.7 km/h 69 % 0 mm
08:12 13.5 °C 7.5 °C 1013.4 hPa North 1.6 km/h 3.7 km/h 67 % 0 mm
08:17 13.8 °C 7.8 °C 1013.4 hPa North 3.1 km/h 5.6 km/h 67 % 0 mm
08:22 14.2 °C 7.7 °C 1013.4 hPa North 3.7 km/h 5.6 km/h 65 % 0 mm
08:28 14.6 °C 7.8 °C 1013.4 hPa North 2.7 km/h 6.4 km/h 64 % 0 mm
08:33 14.9 °C 7.9 °C 1013.4 hPa North 4.2 km/h 5.6 km/h 63 % 0 mm
08:38 15.2 °C 7.9 °C 1013.4 hPa North 0.6 km/h 5.6 km/h 62 % 0 mm
08:43 15.4 °C 7.9 °C 1013.4 hPa North 5.6 km/h 5.6 km/h 61 % 0 mm
08:48 15.7 °C 8.2 °C 1013.4 hPa NNE 3.7 km/h 5.6 km/h 61 % 0 mm
08:53 15.8 °C 8.6 °C 1013.4 hPa North 0.5 km/h 1.9 km/h 62 % 0 mm
08:58 16.2 °C 8.6 °C 1013.4 hPa Calm     61 % 0 mm
09:03 16.7 °C 8.7 °C 1013.4 hPa Calm   5.6 km/h 59 % 0 mm
09:08 17.3 °C 8.9 °C 1013.4 hPa North 3.4 km/h 5.6 km/h 58 % 0 mm
09:13 17.9 °C 8.2 °C 1013.4 hPa North 6.6 km/h 11.1 km/h 53 % 0 mm
09:18 18.6 °C 7.9 °C 1013.1 hPa North 6.1 km/h 16.7 km/h 50 % 0 mm
09:23 19.4 °C 8.4 °C 1013.1 hPa North 8.4 km/h 11.3 km/h 49 % 0 mm
09:28 19.9 °C 7.9 °C 1013.1 hPa NNW 7.2 km/h 16.7 km/h 46 % 0 mm
09:33 20.4 °C 8.1 °C 1013.1 hPa NW 9.7 km/h 11.1 km/h 45 % 0 mm
09:38 20.3 °C 8 °C 1013.1 hPa NNW 8.5 km/h 16.7 km/h 45 % 0 mm
09:43 20.5 °C 7.5 °C 1013.1 hPa North 15 km/h 22.2 km/h 43 % 0 mm
09:48 20.5 °C 7.5 °C 1013.1 hPa North 10 km/h 18.5 km/h 43 % 0 mm
09:53 20.6 °C 7.6 °C 1013.1 hPa NNW 12.2 km/h 20.4 km/h 43 % 0 mm
09:58 20.3 °C 7.3 °C 1013.1 hPa NNW 15 km/h 25.9 km/h 43 % 0 mm
10:03 20.3 °C 7.3 °C 1013.1 hPa North 10.9 km/h 18.5 km/h 43 % 0 mm
10:08 20.4 °C 7.4 °C 1013.1 hPa NNW 15.3 km/h 25.9 km/h 43 % 0 mm
10:13 20.3 °C 7.7 °C 1012.8 hPa North 20 km/h 24.1 km/h 44 % 0 mm
10:18 20.2 °C 7.9 °C 1013.1 hPa North 8.4 km/h 16.7 km/h 45 % 0 mm
10:23 20.4 °C 7.8 °C 1012.8 hPa NNW 16.7 km/h 29.6 km/h 44 % 0 mm
10:28 20.4 °C 8.1 °C 1012.8 hPa North 12.4 km/h 25.9 km/h 45 % 0 mm
10:34 20.3 °C 8 °C 1012.8 hPa NNW 14.2 km/h 18.5 km/h 45 % 0 mm
10:39 20.3 °C 8 °C 1013.1 hPa North 16.7 km/h 20.4 km/h 45 % 0 mm
10:44 20.3 °C 8.3 °C 1012.8 hPa NNW 6.9 km/h 11.3 km/h 46 % 0 mm
10:49 20.3 °C 8.3 °C 1012.8 hPa NW 14.2 km/h 20.4 km/h 46 % 0 mm
10:54 20.4 °C 8.4 °C 1012.4 hPa North 11.7 km/h 16.7 km/h 46 % 0 mm
10:59 20.4 °C 8.1 °C 1012.4 hPa NNW 14.5 km/h 19.3 km/h 45 % 0 mm
11:06 20.3 °C 8.3 °C 1012.4 hPa North 12.7 km/h 18.5 km/h 46 % 0 mm
11:11 20.2 °C 8.2 °C 1012.4 hPa NW 10.6 km/h 22.2 km/h 46 % 0 mm
11:16 20.2 °C 8.2 °C 1012.4 hPa NNW 16.1 km/h 22.2 km/h 46 % 0 mm
11:21 20.3 °C 8.3 °C 1012.4 hPa NNW 14 km/h 22.2 km/h 46 % 0 mm
11:26 20.6 °C 8.6 °C 1012.1 hPa North 10.1 km/h 20.9 km/h 46 % 0 mm
11:32 20.8 °C 8.4 °C 1012.1 hPa North 15 km/h 25.9 km/h 45 % 0 mm
11:37 20.9 °C 8.5 °C 1012.1 hPa North 8.9 km/h 18.5 km/h 45 % 0 mm
11:42 21 °C 8.6 °C 1012.1 hPa NNW 11.9 km/h 18.5 km/h 45 % 0 mm
11:47 21.1 °C 8.4 °C 1012.1 hPa North 12.9 km/h 16.7 km/h 44 % 0 mm
11:52 21.3 °C 8.6 °C 1011.7 hPa North 11.9 km/h 20.4 km/h 44 % 0 mm
11:57 21.6 °C 8.8 °C 1011.7 hPa NNW 15.6 km/h 24.1 km/h 44 % 0 mm
12:02 21.7 °C 8.9 °C 1011.7 hPa North 12.7 km/h 35.2 km/h 44 % 0 mm
12:07 21.9 °C 8.8 °C 1011.7 hPa NNW 14.2 km/h 22.2 km/h 43 % 0 mm
12:12 21.9 °C 8.8 °C 1011.7 hPa NW 12.9 km/h 18.5 km/h 43 % 0 mm
12:17 22 °C 8.8 °C 1011.7 hPa NNW 10.9 km/h 22.2 km/h 43 % 0 mm
12:22 22.1 °C 8.9 °C 1011.7 hPa NNW 10 km/h 18.5 km/h 43 % 0 mm
12:27 22.3 °C 8.7 °C 1011.7 hPa NNW 8.2 km/h 14.8 km/h 42 % 0 mm
12:32 22.5 °C 8.2 °C 1011.7 hPa NW 10.8 km/h 20.4 km/h 40 % 0 mm
12:37 22.5 °C 7.4 °C 1011.7 hPa NW 16.9 km/h 22.5 km/h 38 % 0 mm
12:42 22.8 °C 7.7 °C 1011.4 hPa NNW 12.4 km/h 22.2 km/h 38 % 0 mm
12:47 23.1 °C 7.2 °C 1011.7 hPa NW 13.2 km/h 24.1 km/h 36 % 0 mm
12:52 23.3 °C 7.8 °C 1011.4 hPa North 10 km/h 18.5 km/h 37 % 0 mm
12:57 23.8 °C 6.9 °C 1011.4 hPa North 16.3 km/h 31.5 km/h 34 % 0 mm
13:02 24.2 °C 6.9 °C 1011.4 hPa NW 21.7 km/h 27.8 km/h 33 % 0 mm
13:07 24.5 °C 6.3 °C 1011.4 hPa NW 15.4 km/h 20.4 km/h 31 % 0 mm
13:12 24.7 °C 6.9 °C 1011.1 hPa NW 19.8 km/h 25.9 km/h 32 % 0 mm
13:17 24.9 °C 7.5 °C 1011.1 hPa NW 13.7 km/h 22.2 km/h 33 % 0 mm
13:22 25.1 °C 7.7 °C 1011.1 hPa WNW 22.5 km/h 27.8 km/h 33 % 0 mm
13:27 25.1 °C 8.1 °C 1011.1 hPa NNW 12.1 km/h 20.4 km/h 34 % 0 mm
13:32 24.9 °C 7.9 °C 1011.1 hPa WNW 22.9 km/h 24.1 km/h 34 % 0 mm
13:37 24.9 °C 7.9 °C 1011.1 hPa North 18.7 km/h 24.1 km/h 34 % 0 mm
13:42 24.9 °C 8.4 °C 1011.1 hPa North 14 km/h 22.2 km/h 35 % 0 mm
13:47 25.1 °C 8.1 °C 1010.7 hPa NNW 21.4 km/h 24.1 km/h 34 % 0 mm
13:52 25.2 °C 8.7 °C 1010.7 hPa West 11.3 km/h 18.5 km/h 35 % 0 mm
13:57 25.6 °C 7.7 °C 1010.7 hPa WNW 24.9 km/h 31.5 km/h 32 % 0 mm
14:02 25.3 °C 7.4 °C 1010.7 hPa NNW 9.3 km/h 14.8 km/h 32 % 0 mm
14:07 25.3 °C 7.9 °C 1010.7 hPa NNW 20.1 km/h 24.1 km/h 33 % 0 mm
14:12 25.3 °C 7.8 °C 1010.7 hPa NW 15.8 km/h 16.7 km/h 33 % 0 mm
14:17 25.3 °C 7.8 °C 1010.4 hPa WNW 14.6 km/h 25.9 km/h 33 % 0 mm
14:22 25.3 °C 7.4 °C 1010.4 hPa NNW 21.4 km/h 29.6 km/h 32 % 0 mm
14:27 25.1 °C 8.1 °C 1010.4 hPa WNW 9.5 km/h 16.7 km/h 34 % 0 mm
14:32 25.1 °C 7.2 °C 1010.4 hPa West 21.1 km/h 22.2 km/h 32 % 0 mm
14:37 25 °C 7.6 °C 1010.4 hPa WNW 18.5 km/h 31.5 km/h 33 % 0 mm
14:42 24.8 °C 7 °C 1010.4 hPa WNW 17.7 km/h 27.8 km/h 32 % 0 mm
14:48 24.6 °C 7.3 °C 1010.4 hPa WNW 16.7 km/h 25.9 km/h 33 % 0 mm
14:53 24.7 °C 7.3 °C 1010.4 hPa WNW 18.3 km/h 27.8 km/h 33 % 0 mm
14:58 24.6 °C 7.2 °C 1010.4 hPa West 16.1 km/h 27.4 km/h 33 % 0 mm
15:03 24.4 °C 7.6 °C 1010.4 hPa WNW 15.4 km/h 20.4 km/h 34 % 0 mm
15:08 24.4 °C 7.1 °C 1010.4 hPa WNW 16.1 km/h 22.2 km/h 33 % 0 mm
15:13 24.4 °C 7.1 °C 1010.4 hPa NW 12.6 km/h 18.5 km/h 33 % 0 mm
15:23 24.7 °C 7.3 °C 1010.4 hPa NW 10.5 km/h 18.5 km/h 33 % 0 mm
15:28 24.7 °C 7.3 °C 1010.4 hPa NW 16.7 km/h 22.2 km/h 33 % 0 mm
15:33 24.6 °C 7.3 °C 1010.4 hPa WNW 16.7 km/h 31.5 km/h 33 % 0 mm
15:38 24.5 °C 7.2 °C 1010.4 hPa NW 14.5 km/h 25.9 km/h 33 % 0 mm
15:43 24.6 °C 6.8 °C 1010.4 hPa WNW 11.7 km/h 18.5 km/h 32 % 0 mm
15:48 24.6 °C 6.8 °C 1010.4 hPa WNW 18.5 km/h 24.1 km/h 32 % 0 mm
15:53 24.6 °C 6.8 °C 1010.4 hPa WNW 17.1 km/h 22.2 km/h 32 % 0 mm
15:58 24.6 °C 7.2 °C 1010.4 hPa WNW 13.2 km/h 18.5 km/h 33 % 0 mm
16:03 24.6 °C 6.8 °C 1010.4 hPa WNW 12.9 km/h 18.5 km/h 32 % 0 mm
16:08 24.6 °C 6.8 °C 1010.4 hPa WNW 11.4 km/h 14.8 km/h 32 % 0 mm
16:13 24.7 °C 6.4 °C 1010.4 hPa NW 12.2 km/h 16.7 km/h 31 % 0 mm
16:18 24.8 °C 6.5 °C 1010.4 hPa NW 12.4 km/h 18.5 km/h 31 % 0 mm
16:23 24.8 °C 6.5 °C 1010.4 hPa West 12.1 km/h 18.5 km/h 31 % 0 mm
16:28 24.8 °C 6.5 °C 1010.4 hPa North 6.9 km/h 11.1 km/h 31 % 0 mm
16:33 24.7 °C 5.5 °C 1010.4 hPa WNW 12.9 km/h 18.5 km/h 29 % 0 mm
16:38 24.7 °C 5.4 °C 1010.4 hPa WNW 13.8 km/h 22.2 km/h 29 % 0 mm
16:43 24.6 °C 5.4 °C 1010.4 hPa WNW 15 km/h 18.5 km/h 29 % 0 mm
16:48 24.6 °C 5.8 °C 1010.4 hPa WNW 7.6 km/h 13 km/h 30 % 0 mm
16:53 24.5 °C 5.3 °C 1010.4 hPa WNW 8.9 km/h 9.7 km/h 29 % 0 mm
16:58 24.5 °C 5.3 °C 1010.4 hPa West 7.9 km/h 14.8 km/h 29 % 0 mm
17:00 24.5 °C 4.8 °C 1010.4 hPa WNW 11.7 km/h 16.7 km/h 28 % 0 mm
17:05 24.4 °C 4.7 °C 1010.7 hPa WNW 14.5 km/h 18.5 km/h 28 % 0 mm
17:10 24.4 °C 4.7 °C 1010.7 hPa WNW 8.7 km/h 13 km/h 28 % 0 mm
17:15 24.4 °C 4.7 °C 1010.7 hPa WNW 8.9 km/h 9.3 km/h 28 % 0 mm
17:20 24.7 °C 4.9 °C 1010.4 hPa WNW 8.5 km/h 11.1 km/h 28 % 0 mm
17:25 24.7 °C 5.4 °C 1010.7 hPa WNW 6.9 km/h 14.8 km/h 29 % 0 mm
17:30 24.5 °C 5.3 °C 1010.7 hPa WNW 3.5 km/h 5.6 km/h 29 % 0 mm
17:35 24.4 °C 5.7 °C 1010.7 hPa West 10.8 km/h 16.1 km/h 30 % 0 mm
17:40 24.6 °C 5.9 °C 1010.7 hPa West 6 km/h 6 km/h 30 % 0 mm
17:45 24.7 °C 5.5 °C 1010.7 hPa West 6.8 km/h 7.4 km/h 29 % 0 mm
17:50 24.7 °C 5.4 °C 1010.7 hPa West 6.3 km/h 9.7 km/h 29 % 0 mm
17:55 24.3 °C 5.1 °C 1010.7 hPa West 6.6 km/h 13 km/h 29 % 0 mm
18:00 23.9 °C 4.3 °C 1010.7 hPa WNW 6.8 km/h 11.3 km/h 28 % 0 mm
18:05 23.7 °C 3.6 °C 1011.1 hPa WNW 8.7 km/h 13 km/h 27 % 0 mm
18:10 23.6 °C 4 °C 1011.1 hPa WNW 3.5 km/h 5.6 km/h 28 % 0 mm
18:15 23.3 °C 3.7 °C 1011.1 hPa WNW 3.1 km/h 4.8 km/h 28 % 0 mm
18:21 23.1 °C 4.1 °C 1011.1 hPa WNW 4.2 km/h 5.6 km/h 29 % 0 mm
18:26 22.8 °C 3.8 °C 1011.1 hPa WNW 5 km/h 5.6 km/h 29 % 0 mm
18:31 22.7 °C 4.2 °C 1011.1 hPa WNW 3.1 km/h 5.6 km/h 30 % 0 mm
18:36 22.4 °C 3.9 °C 1011.1 hPa WNW 4.5 km/h 5.6 km/h 30 % 0 mm
18:41 22.2 °C 4.3 °C 1011.1 hPa WNW 0.8 km/h 3.7 km/h 31 % 0 mm
18:46 21.8 °C 3.9 °C 1011.1 hPa WNW 4 km/h 5.6 km/h 31 % 0 mm
18:51 21.5 °C 4.1 °C 1011.4 hPa WNW 5.3 km/h 6.4 km/h 32 % 0 mm
18:56 21 °C 4.6 °C 1011.4 hPa North 4.8 km/h 5.6 km/h 34 % 0 mm
19:02 20.3 °C 4.7 °C 1011.4 hPa WNW 5 km/h 5.6 km/h 36 % 0 mm
19:07 19.8 °C 4.7 °C 1011.4 hPa WNW 5.8 km/h 7.4 km/h 37 % 0 mm
19:12 19.4 °C 5.1 °C 1011.4 hPa WNW 5.8 km/h 7.4 km/h 39 % 0 mm
19:17 19.2 °C 4.5 °C 1011.4 hPa WNW 8.7 km/h 9.3 km/h 38 % 0 mm
19:22 19.2 °C 4.1 °C 1011.4 hPa WNW 4.3 km/h 5.6 km/h 37 % 0 mm
19:27 19.2 °C 4.2 °C 1011.7 hPa WNW 1.1 km/h 3.7 km/h 37 % 0 mm
19:32 19 °C 5.1 °C 1011.7 hPa West 4.5 km/h 5.6 km/h 40 % 0 mm
19:37 18.8 °C 4.2 °C 1011.7 hPa Calm     38 % 0 mm
19:42 18.6 °C 4.4 °C 1011.7 hPa Calm     39 % 0 mm
19:47 18.6 °C 5.1 °C 1012.1 hPa Calm     41 % 0 mm
19:52 18.5 °C 4.6 °C 1012.1 hPa Calm     40 % 0 mm
19:58 18.3 °C 4.8 °C 1012.1 hPa Calm     41 % 0 mm
20:02 18.1 °C 5.3 °C 1012.1 hPa Calm     43 % 0 mm
20:08 18 °C 6.5 °C 1012.1 hPa North 7.2 km/h 8 km/h 47 % 0 mm
20:13 18.1 °C 7.2 °C 1012.1 hPa SSW 1.8 km/h 5.6 km/h 49 % 0 mm
20:18 18.1 °C 7.2 °C 1012.1 hPa SSW 5 km/h 6.4 km/h 49 % 0 mm
20:23 17.8 °C 7.5 °C 1012.4 hPa SSW 4.8 km/h 11.1 km/h 51 % 0 mm
20:28 17.6 °C 8.4 °C 1012.4 hPa SSW 5 km/h 5.6 km/h 55 % 0 mm
20:33 17.4 °C 8.8 °C 1012.4 hPa SSW 5.6 km/h 5.6 km/h 57 % 0 mm
20:38 17.3 °C 9.4 °C 1012.4 hPa SSW 3.9 km/h 5.6 km/h 60 % 0 mm
20:43 17.1 °C 9.5 °C 1012.4 hPa SSW 4.3 km/h 5.6 km/h 61 % 0 mm
20:48 17.1 °C 9.7 °C 1012.8 hPa SSW 2.6 km/h 5.6 km/h 62 % 0 mm
20:54 16.9 °C 9.8 °C 1012.8 hPa SSW 1.8 km/h 3.7 km/h 63 % 0 mm
21:00 16.7 °C 9.9 °C 1012.8 hPa North 3.4 km/h 5.6 km/h 64 % 0 mm
21:15 16.2 °C 9.8 °C 1012.8 hPa SSW 3.2 km/h 5.6 km/h 66 % 0 mm
21:20 16 °C 9.9 °C 1012.8 hPa SSW 4.7 km/h 6.4 km/h 67 % 0 mm
21:25 15.9 °C 10.1 °C 1012.8 hPa SSW 4.8 km/h 5.6 km/h 68 % 0 mm
21:30 15.8 °C 10.2 °C 1012.8 hPa SSW 2.1 km/h 5.6 km/h 69 % 0 mm
21:35 15.8 °C 10.1 °C 1012.8 hPa SSW 4.7 km/h 5.6 km/h 69 % 0 mm
21:40 15.7 °C 10.3 °C 1012.8 hPa SSW 3.4 km/h 5.6 km/h 70 % 0 mm
21:45 15.7 °C 10.3 °C 1012.8 hPa SSW 3.4 km/h 5.6 km/h 70 % 0 mm
21:50 15.7 °C 10.4 °C 1012.8 hPa Calm   5.6 km/h 71 % 0 mm
21:56 15.7 °C 10.4 °C 1012.8 hPa North 4.2 km/h 5.6 km/h 71 % 0 mm
22:01 15.6 °C 10.3 °C 1012.8 hPa SSW 4.3 km/h 5.6 km/h 71 % 0 mm
22:24 15.2 °C 10.3 °C 1013.1 hPa SSW 6.1 km/h 7.4 km/h 73 % 0 mm
22:29 15 °C 10.2 °C 1013.1 hPa SSW 5.6 km/h 7.4 km/h 73 % 0 mm
22:34 14.9 °C 10.2 °C 1013.1 hPa SSW 6 km/h 7.4 km/h 73 % 0 mm
22:39 14.8 °C 10.2 °C 1013.1 hPa SSW 2.4 km/h 5.6 km/h 74 % 0 mm
22:44 14.8 °C 10.2 °C 1013.4 hPa SSW 4.7 km/h 8 km/h 74 % 0 mm
22:49 14.8 °C 10.2 °C 1013.4 hPa SSW 3.7 km/h 9.3 km/h 74 % 0 mm
22:54 14.7 °C 10.1 °C 1013.4 hPa SSW 4.2 km/h 8 km/h 74 % 0 mm
22:59 14.6 °C 10.2 °C 1013.4 hPa SSW 4.2 km/h 5.6 km/h 75 % 0 mm
23:04 14.5 °C 10.1 °C 1013.4 hPa SSW 2.9 km/h 5.6 km/h 75 % 0 mm
23:09 14.4 °C 10.1 °C 1013.4 hPa SSW 0.8 km/h 3.7 km/h 75 % 0 mm
23:24 14.1 °C 9.9 °C 1013.4 hPa SSW 3.5 km/h 5.6 km/h 76 % 0 mm
23:30 14 °C 10.1 °C 1013.8 hPa SSW 1.9 km/h 3.7 km/h 77 % 0 mm
23:35 13.9 °C 9.9 °C 1013.8 hPa SSW 3.4 km/h 5.6 km/h 77 % 0 mm
23:40 13.8 °C 10 °C 1013.8 hPa North 2.1 km/h 7.4 km/h 78 % 0 mm
23:45 13.7 °C 9.9 °C 1013.8 hPa SSW 3.1 km/h 5.6 km/h 78 % 0 mm
23:50 13.6 °C 10.1 °C 1013.8 hPa North 3.2 km/h 5.6 km/h 79 % 0 mm
23:55 13.6 °C 10 °C 1013.8 hPa SSW 0.8 km/h 3.7 km/h 79 % 0 mm
Ararat Weather
Compliments of Weather Underground - 2.5 mb
Click here to send mail.


ABOUT

Live weather data from Ararat, Victoria, Australia, 3377
Data uploaded from Cumulus every 5 minutes to Weather Underground.
This site then downloads the raw data for formatting and display.
Metric and imperial data can be displayed. Graphs and historical data available.
Includes Sun and Moon times and rain image live from BOM.

Check out Ararat Weather on Facebook, Twitter and Google +

Help support ongoing costs by checking out the ads





Follow @AraratWeather